STARLINK-1230, 45189

Orbit data source: Space-Track

STARLINK-1230, 45189 is a payload satellite owned by SpaceX/Seattle (US) in LEO that was launched on Mon, 17 Feb 2020 UTC via an FALCON 9 launch vehicle from the Air Force Eastern Test Range (AFETR). Payload-class satellites include a variety of spacecraft equipped with specific instruments for various scientific and technological missions. These include communications satellites like Starlink; space stations such as the ISS; scientific satellites like the Hubble; Earth observation satellites from companies like Planet Labs, Umbra, and HawkEye 360; GPS; miniature CubeSats for education and research; and military/defense satellites.

Loading next visibility...
Identifier
45189, 2020-012M
Orbit
LEO
Country
Flag of USUS
Related business
Manufacturer
SpaceX/Seattle
Mission
Partially operational Commercial Communications
Bus & Motor
STARLINK, Unknown motor
Mass
260 kg wet, ~248 kg dry
Launch date (UTC)
2020-02-17 (6 years ago)
Launch vehicle
FALCON 9
Launch site
Air Force Eastern Test Range (AFETR)
Object type
Payload
Rocket body
Debris
Shape & HBR
Box + 1 Pan, 10.1 m
Radar Cross Section
13.562 m², Large (>1 m²)

Expand to show TLE details & history
Last TLE update: 12 hours ago

TLE from 12 hours ago
0 STARLINK-1230
1 45189U 20012M   26124.44729838  .00130670  00000-0  40912-2 0  9997
2 45189  53.1551 140.5491 0003591  39.4062 320.7200 15.32149187340704
Epoch: 2026-05-04T10:44Z
TLE epoch observation values (Epoch: 2026-05-04T10:44:06.580Z)
Latitude
-0.00002°
Longitude
117.18531°
Altitude
468.398 km
Speed
7.634 km/s
True Right ascension
09h 22m 11s
True Declination
0° 00' 00"
Sunlit
Object was in daylight at epoch
Visualization orbit readout
Latitude
Unknown
Longitude
Unknown
Altitude
Unknown
Speed
Unknown
Apparent Right ascension
Unknown
Apparent Declination
Unknown
Sunlit
N/A
Visualization observer readout
Local Sidereal Time
06:41:16
Azimuth
Unknown
Elevation
Unknown
Doppler factor
Unknown
Orbital elements
Apogee altitude
472.118 km
Perigee altitude
467.2 km
Semi-major axis
6,847.796 km
Eccentricity
0.00036
Inclination
53.1551°
RAAN
140.5491°
Arg. of periapsis
39.4062°
True anomaly
320.69394°
Mean anomaly
320.72°
Eccentric anomaly
320.70697°
Mean motion
3.83016 °/min
Orbital period
93.99 mins
BSTAR
0.0040912
Loading maneuver chart data...
Computing Atmospheric mass density...
Loading historical data...
Loading historical data...
Loading historical data...
Loading historical data...
Loading historical data...
Loading historical data...
Loading historical data...

Documentation

Showing up to 5 results
|